When you browse on this site, cookies collect data to enhance your experience and personalize the content and advertising you see.
Visit our Privacy Policy to learn more. By continuing to use the site, you agree to this use of cookies and data.
  • En España
  • Lista de países
  • Para 7 días
  • Temperatura del agua
  • Mapa Satelital
  • El tiempo en el mapa
  • Informadores
  • user-avatar
    Iniciar sesión

    Tiempo cada hora Sucre

    Hoy, 20 Enero, Domingo

    Tiempo Temperatura Precipitaciones Viento Presión Humedad
    00:00 +13°C° 0.1 mm 2 mps 542 mmHg 83%
    01:00 +13°C° 0.1 mm 2 mps 542 mmHg 85%
    02:00 +12°C° 0.1 mm 2 mps 542 mmHg 86%
    03:00 +12°C° 0 mm 2 mps 542 mmHg 86%
    04:00 +12°C° 0 mm 1 mps 542 mmHg 86%
    05:00 +12°C° 0 mm 1 mps 542 mmHg 85%
    06:00 +12°C° 0 mm 1 mps 542 mmHg 84%
    07:00 +13°C° 0 mm 1 mps 542 mmHg 82%
    08:00 +13°C° 0 mm 1 mps 543 mmHg 80%
    09:00 +15°C° 0 mm 2 mps 543 mmHg 73%
    10:00 +16°C° 0 mm 2 mps 544 mmHg 65%
    11:00 +18°C° 0 mm 2 mps 544 mmHg 57%
    12:00 +19°C° 0 mm 2 mps 544 mmHg 52%
    13:00 +21°C° 0 mm 3 mps 545 mmHg 46%
    14:00 +22°C° 0 mm 3 mps 545 mmHg 40%
    15:00 +22°C° 0 mm 4 mps 544 mmHg 41%
    16:00 +22°C° 0 mm 4 mps 544 mmHg 42%
    17:00 +22°C° 0 mm 5 mps 543 mmHg 43%
    18:00 +20°C° 0 mm 4 mps 543 mmHg 49%
    19:00 +19°C° 0 mm 3 mps 543 mmHg 55%
    20:00 +17°C° 0 mm 2 mps 543 mmHg 61%
    21:00 +17°C° 0 mm 2 mps 543 mmHg 64%
    22:00 +16°C° 0 mm 2 mps 543 mmHg 68%
    23:00 +15°C° 0 mm 2 mps 543 mmHg 72%

    Mañana, 21 Enero, Lunes

    Tiempo Temperatura Precipitaciones Viento Presión Humedad
    00:00 +15°C° 0 mm 2 mps 543 mmHg 75%
    01:00 +14°C° 0 mm 1 mps 542 mmHg 79%
    02:00 +14°C° 0 mm 1 mps 542 mmHg 83%
    03:00 +13°C° 0 mm 1 mps 541 mmHg 85%
    04:00 +13°C° 0 mm 1 mps 541 mmHg 88%
    05:00 +11°C° 0 mm 0 mps 541 mmHg 90%
    06:00 +12°C° 0 mm 0 mps 542 mmHg 84%
    07:00 +13°C° 0 mm 0 mps 542 mmHg 77%
    08:00 +14°C° 0 mm 0 mps 543 mmHg 70%
    09:00 +18°C° 0 mm 1 mps 544 mmHg 59%
    10:00 +20°C° 0 mm 1 mps 545 mmHg 47%
    11:00 +21°C° 0 mm 2 mps 546 mmHg 36%
    12:00 +22°C° 0 mm 3 mps 546 mmHg 34%
    13:00 +23°C° 0 mm 4 mps 545 mmHg 31%
    14:00 +25°C° 0 mm 5 mps 545 mmHg 29%
    15:00 +25°C° 0 mm 5 mps 545 mmHg 31%
    16:00 +23°C° 0 mm 6 mps 544 mmHg 34%
    17:00 +23°C° 0 mm 7 mps 544 mmHg 36%
    18:00 +21°C° 0.2 mm 5 mps 544 mmHg 45%
    19:00 +19°C° 0.2 mm 4 mps 544 mmHg 53%
    20:00 +18°C° 0.2 mm 3 mps 543 mmHg 62%
    21:00 +17°C° 0.4 mm 2 mps 544 mmHg 66%
    22:00 +16°C° 0.4 mm 1 mps 544 mmHg 70%
    23:00 +16°C° 0.4 mm 1 mps 544 mmHg 74%

    Pasado mañana, 22 Enero, Martes

    Tiempo Temperatura Precipitaciones Viento Presión Humedad
    00:00 +15°C° 0.2 mm 1 mps 544 mmHg 76%
    01:00 +15°C° 0.2 mm 1 mps 543 mmHg 78%
    02:00 +14°C° 0.2 mm 1 mps 543 mmHg 80%
    03:00 +14°C° 0 mm 1 mps 543 mmHg 82%
    04:00 +13°C° 0 mm 0 mps 542 mmHg 84%
    05:00 +12°C° 0 mm 0 mps 542 mmHg 85%
    06:00 +13°C° 0 mm 0 mps 543 mmHg 78%
    07:00 +14°C° 0 mm 0 mps 543 mmHg 71%
    08:00 +15°C° 0 mm 0 mps 544 mmHg 64%
    09:00 +19°C° 0 mm 1 mps 545 mmHg 56%
    10:00 +19°C° 0 mm 2 mps 545 mmHg 48%
    11:00 +21°C° 0 mm 2 mps 546 mmHg 39%
    12:00 +22°C° 0 mm 3 mps 546 mmHg 37%
    13:00 +23°C° 0 mm 4 mps 545 mmHg 34%
    14:00 +25°C° 0 mm 4 mps 545 mmHg 32%
    15:00 +23°C° 0 mm 5 mps 545 mmHg 32%
    16:00 +23°C° 0 mm 5 mps 544 mmHg 33%
    17:00 +23°C° 0 mm 6 mps 544 mmHg 33%
    18:00 +22°C° 0 mm 5 mps 544 mmHg 40%
    19:00 +20°C° 0 mm 4 mps 544 mmHg 47%
    20:00 +19°C° 0 mm 3 mps 544 mmHg 54%
    21:00 +18°C° 0 mm 2 mps 544 mmHg 59%
    22:00 +18°C° 0 mm 1 mps 544 mmHg 64%
    23:00 +16°C° 0 mm 1 mps 544 mmHg 69%

    23 Enero, Miércoles

    Tiempo Temperatura Precipitaciones Viento Presión Humedad
    00:00 +16°C° 0.1 mm 1 mps 544 mmHg 72%
    01:00 +14°C° 0.1 mm 0 mps 543 mmHg 76%
    02:00 +14°C° 0.1 mm 0 mps 542 mmHg 79%
    03:00 +13°C° 0 mm 0 mps 542 mmHg 80%
    04:00 +13°C° 0 mm 0 mps 542 mmHg 81%
    05:00 +13°C° 0 mm 0 mps 542 mmHg 82%
    06:00 +14°C° 0 mm 0 mps 543 mmHg 75%
    07:00 +15°C° 0 mm 0 mps 544 mmHg 69%
    08:00 +16°C° 0 mm 0 mps 544 mmHg 62%
    09:00 +20°C° 0.1 mm 1 mps 545 mmHg 54%
    10:00 +20°C° 0.1 mm 2 mps 546 mmHg 46%
    11:00 +23°C° 0.1 mm 2 mps 547 mmHg 38%
    12:00 +24°C° 0 mm 3 mps 546 mmHg 36%
    13:00 +25°C° 0 mm 4 mps 546 mmHg 34%
    14:00 +26°C° 0 mm 5 mps 546 mmHg 32%
    15:00 +25°C° 0 mm 5 mps 545 mmHg 34%
    16:00 +25°C° 0 mm 5 mps 545 mmHg 35%
    17:00 +23°C° 0 mm 5 mps 544 mmHg 36%
    18:00 +22°C° 0.1 mm 4 mps 544 mmHg 41%
    19:00 +21°C° 0.1 mm 3 mps 544 mmHg 45%
    20:00 +20°C° 0.1 mm 2 mps 544 mmHg 50%
    21:00 +19°C° 0.1 mm 2 mps 544 mmHg 54%
    22:00 +19°C° 0.1 mm 1 mps 545 mmHg 57%
    23:00 +19°C° 0.1 mm 1 mps 545 mmHg 61%

    24 Enero, Jueves

    Tiempo Temperatura Precipitaciones Viento Presión Humedad
    00:00 +18°C° 0.1 mm 1 mps 544 mmHg 64%
    01:00 +18°C° 0.1 mm 1 mps 544 mmHg 66%
    02:00 +15°C° 0.1 mm 0 mps 543 mmHg 69%
    03:00 +15°C° 0 mm 0 mps 543 mmHg 71%
    04:00 +14°C° 0 mm 0 mps 543 mmHg 72%
    05:00 +14°C° 0 mm 0 mps 543 mmHg 74%
    06:00 +15°C° 0 mm 0 mps 543 mmHg 69%
    07:00 +15°C° 0 mm 0 mps 544 mmHg 64%
    08:00 +16°C° 0 mm 0 mps 545 mmHg 59%
    09:00 +20°C° 0 mm 1 mps 545 mmHg 52%
    10:00 +20°C° 0 mm 2 mps 546 mmHg 46%
    11:00 +23°C° 0 mm 2 mps 546 mmHg 39%
    12:00 +24°C° 0 mm 3 mps 546 mmHg 36%
    13:00 +25°C° 0 mm 4 mps 546 mmHg 33%
    14:00 +26°C° 0 mm 5 mps 546 mmHg 30%
    15:00 +26°C° 0 mm 5 mps 545 mmHg 29%
    16:00 +26°C° 0 mm 5 mps 545 mmHg 29%
    17:00 +25°C° 0 mm 5 mps 545 mmHg 28%
    18:00 +23°C° 0 mm 4 mps 544 mmHg 34%
    19:00 +21°C° 0 mm 3 mps 544 mmHg 40%
    20:00 +19°C° 0 mm 2 mps 543 mmHg 46%
    21:00 +19°C° 0 mm 2 mps 543 mmHg 51%
    22:00 +19°C° 0 mm 1 mps 544 mmHg 55%
    23:00 +18°C° 0 mm 1 mps 544 mmHg 60%

    25 Enero, Viernes

    Tiempo Temperatura Precipitaciones Viento Presión Humedad
    00:00 +16°C° 0 mm 1 mps 543 mmHg 63%
    01:00 +15°C° 0 mm 0 mps 542 mmHg 66%
    02:00 +14°C° 0 mm 0 mps 542 mmHg 70%
    03:00 +14°C° 0 mm 0 mps 542 mmHg 71%
    04:00 +13°C° 0 mm 0 mps 542 mmHg 72%
    05:00 +13°C° 0 mm 0 mps 541 mmHg 74%
    06:00 +14°C° 0 mm 0 mps 542 mmHg 67%
    07:00 +16°C° 0 mm 0 mps 543 mmHg 60%
    08:00 +17°C° 0 mm 0 mps 544 mmHg 53%
    09:00 +21°C° 0 mm 1 mps 545 mmHg 45%
    10:00 +23°C° 0 mm 2 mps 545 mmHg 37%
    11:00 +24°C° 0 mm 2 mps 546 mmHg 29%
    12:00 +25°C° 0 mm 3 mps 545 mmHg 26%
    13:00 +26°C° 0 mm 3 mps 545 mmHg 24%
    14:00 +27°C° 0 mm 4 mps 545 mmHg 21%
    15:00 +28°C° 0 mm 4 mps 545 mmHg 21%
    16:00 +28°C° 0 mm 4 mps 544 mmHg 21%
    17:00 +28°C° 0 mm 5 mps 544 mmHg 21%
    18:00 +26°C° 0 mm 4 mps 544 mmHg 27%
    19:00 +22°C° 0 mm 4 mps 543 mmHg 34%
    20:00 +20°C° 0 mm 4 mps 543 mmHg 41%
    21:00 +20°C° 0 mm 3 mps 543 mmHg 47%
    22:00 +19°C° 0 mm 2 mps 544 mmHg 52%
    23:00 +19°C° 0 mm 1 mps 544 mmHg 58%
    Mostrar más